Molniya-1

operational
NORAD ID: 13070 Int'l Des: 1982-015 Owner: GUKOS Country: SU
MEOELLIPTICALHEO_ELLIPTICALSEMI_SYNCMOLNIYA

About Molniya-1

Description loading...

Live Position

Loading 3D Globe...

Upcoming Passes

Altitude History

Altitude vs Time

uPlot chart will show altitude changes over time

Two-Line Element Set

1 13070U 82015A 26049.55548367 .00000130 00000-0 -23526-1 0 9995
2 13070 63.4053 52.4876 7102146 283.8268 11.9843 2.00349798322188
Epoch: Feb 18, 2026 • Age: 21 hours

Current Status

Altitude 30587.9 km
Velocity 2.56 km/s
Sub-Earth Point 44.14°N, 94.87°W
Launch Date Feb 26, 1982
Age 43.9 years
Type other

Technical Details

Classification Payload
Mass 1650.00 kg
Dry Mass 1620.00 kg
Total Mass 1650.00 kg
Length 4.40 m
Diameter 1.40 m
Span 8.60 m
Shape Cyl + 6 Pan
Manufacturer NPOPM
Bus Type Molniya-1
Phase Status In Orbit
Owner/State GUKOS/SU

Large Constellations

Loading constellations...